Weather History for Metropolis, IL

Change the Weather History Date:

Saturday, October 13, 2012

  Actual Average (KPAH) Record (KPAH)
Temperature  
Mean Temperature 66 °F 60 °F  
Max Temperature 80 °F 72 °F 89 °F (1989)
Min Temperature 51 °F 47 °F 27 °F (1988)
Degree Days  
Heating Degree Days 0 7  
Month to date heating degree days 69  
Since 1 July heating degree days 108  
Cooling Degree Days 0 1  
Month to date cooling degree days 24  
Year to date cooling degree days 1524  
Growing Degree Days 16 (Base 50)    
Moisture  
Dew Point 60 °F    
Average Humidity 80    
Maximum Humidity 100    
Minimum Humidity 51    
Precipitation  
Precipitation 0.00 in 0.13 in 2.17 in (1959)
Month to date precipitation 1.70  
Year to date precipitation 37.93  
Snow  
Snow 0.00 in 0.00 in 0.00 in (2002)
Month to date snowfall 0.0  
Since 1 July snowfall 0.0  
Since 1 September snowfall 0.0  
Snow Depth -    
Sea Level Pressure  
Sea Level Pressure 30.10 in    
Wind  
Wind Speed 3 mph (South)    
Max Wind Speed 14 mph    
Max Gust Speed 21 mph    
Visibility 8 miles    
Events      
T = Trace of Precipitation, MM = Missing Value Source: NWS Daily Summary

Daily Weather History Graph

Daily Weather History Graph

Search for Another Location

Airport:

Trip Planner

Search our weather history database for the weather conditions in past years. The results will help you decide how hot, cold, wet, or windy it might be!

Date:

Astronomy

Oct. 13, 2012 Rise Set
Actual Time 7:01 AM CDT 6:20 PM CDT
Civil Twilight 6:35 AM CDT 6:46 PM CDT
Nautical Twilight 6:05 AM CDT 7:16 PM CDT
Astronomical Twilight 5:34 AM CDT 7:46 PM CDT
Moon 4:53 AM CDT (10/13) 5:02 PM CDT (10/13)
Length of Visible Light 12h 11m
Length of Day
11h 18m
Waning Crescent, 5% of the Moon is Illuminated
Oct 13
Waning Crescent
Oct 15
New
Oct 21
First Quarter
Oct 29
Full
Nov 6
Last Quarter

Hourly Weather History & Observations

Time (CDT) Temp. Heat Index Dew Point Humidity Pressure Visibility Wind Dir Wind Speed Gust Speed Precip Events Conditions
12:35 AM 51.8 °F - 51.8 °F 100% 30.24 in 4.0 mi Calm Calm - N/A   Clear
12:55 AM 51.8 °F - 51.8 °F 100% 30.24 in 2.5 mi Calm Calm - N/A   Clear
1:15 AM 52.3 °F - 52.3 °F 100% 30.24 in 4.0 mi Calm Calm - N/A   Mostly Cloudy
1:35 AM 54.3 °F - 54.3 °F 100% 30.23 in 5.0 mi Calm Calm - N/A   Overcast
2:15 AM 55.4 °F - 55.4 °F 100% 30.22 in 5.0 mi Calm Calm - N/A   Overcast
2:35 AM 55.9 °F - 55.9 °F 100% 30.21 in 7.0 mi East 3.5 mph - N/A   Overcast
2:55 AM 56.5 °F - 56.5 °F 100% 30.20 in 7.0 mi Calm Calm - N/A   Overcast
3:15 AM 57.0 °F - 57.0 °F 100% 30.20 in 7.0 mi Calm Calm - N/A   Overcast
3:35 AM 57.2 °F - 57.2 °F 100% 30.20 in 7.0 mi Calm Calm - N/A   Overcast
3:55 AM 57.4 °F - 57.2 °F 99% 30.19 in 7.0 mi Calm Calm - N/A   Overcast
4:55 AM 57.7 °F - 57.6 °F 99% 30.17 in 7.0 mi SE 3.5 mph - N/A   Overcast
5:15 AM 58.1 °F - 57.4 °F 97% 30.17 in 7.0 mi Calm Calm - N/A   Overcast
5:35 AM 58.3 °F - 57.6 °F 97% 30.18 in 7.0 mi Calm Calm - N/A   Overcast
5:55 AM 58.5 °F - 57.7 °F 97% 30.18 in 7.0 mi Calm Calm - N/A   Overcast
6:15 AM 58.5 °F - 57.7 °F 97% 30.18 in 7.0 mi SE 3.5 mph - N/A   Overcast
6:35 AM 58.5 °F - 57.7 °F 97% 30.19 in 7.0 mi SE 5.8 mph - N/A   Overcast
7:15 AM 58.1 °F - 58.1 °F 100% 30.19 in 3.0 mi Calm Calm - N/A   Overcast
7:55 AM 58.3 °F - 58.3 °F 100% 30.18 in 0.5 mi Calm Calm - N/A   Overcast
8:15 AM 58.6 °F - 58.6 °F 100% 30.19 in 0.2 mi Calm Calm - N/A   Overcast
8:55 AM 59.9 °F - 59.9 °F 100% 30.18 in 0.5 mi Calm Calm - N/A   Overcast
9:15 AM 60.8 °F - 60.8 °F 100% 30.18 in 1.2 mi Calm Calm - N/A   Overcast
9:35 AM 61.3 °F - 61.3 °F 100% 30.18 in 2.5 mi Calm Calm - N/A   Overcast
9:55 AM 63.7 °F - 63.7 °F 100% 30.17 in 4.0 mi Calm Calm - N/A   Overcast
10:15 AM 65.5 °F - 64.4 °F 96% 30.16 in 5.0 mi South 4.6 mph - N/A   Overcast
11:35 AM 73.8 °F - 67.3 °F 80% 30.13 in 10.0 mi SSW 6.9 mph - N/A   Scattered Clouds
11:55 AM 76.3 °F - 67.6 °F 74% 30.13 in 10.0 mi South 8.1 mph - N/A   Scattered Clouds
12:15 PM 76.8 °F - 67.6 °F 73% 30.12 in 10.0 mi South 8.1 mph - N/A   Mostly Cloudy
12:35 PM 78.3 °F - 67.6 °F 70% 30.11 in 10.0 mi South 10.4 mph - N/A   Mostly Cloudy
12:55 PM 78.1 °F - 65.5 °F 65% 30.10 in 10.0 mi South 11.5 mph 18.4 mph N/A   Mostly Cloudy
1:15 PM 77.7 °F - 65.3 °F 65% 30.08 in 10.0 mi South 11.5 mph 19.6 mph N/A   Mostly Cloudy
1:35 PM 79.2 °F - 64.6 °F 61% 30.08 in 10.0 mi South 10.4 mph - N/A   Mostly Cloudy
2:15 PM 78.8 °F - 63.9 °F 60% 30.06 in 10.0 mi South 9.2 mph - N/A   Scattered Clouds
2:35 PM 79.7 °F - 63.5 °F 58% 30.05 in 10.0 mi South 13.8 mph 19.6 mph N/A   Scattered Clouds
2:55 PM 78.8 °F - 62.6 °F 57% 30.04 in 10.0 mi South 13.8 mph 18.4 mph N/A   Mostly Cloudy
3:15 PM 78.8 °F - 62.1 °F 56% 30.04 in 10.0 mi South 10.4 mph 17.3 mph N/A   Mostly Cloudy
3:35 PM 80.1 °F 81.1 °F 61.7 °F 53% 30.03 in 10.0 mi South 12.7 mph 20.7 mph N/A   Mostly Cloudy
3:55 PM 80.2 °F 81.3 °F 61.9 °F 53% 30.03 in 10.0 mi SSW 10.4 mph - N/A   Scattered Clouds
4:15 PM 80.1 °F 81.0 °F 60.4 °F 51% 30.02 in 10.0 mi SSW 12.7 mph 19.6 mph N/A   Scattered Clouds
4:55 PM 78.8 °F - 61.0 °F 54% 30.02 in 10.0 mi South 10.4 mph 19.6 mph N/A   Scattered Clouds
5:15 PM 77.7 °F - 60.4 °F 55% 30.02 in 10.0 mi South 9.2 mph - N/A   Scattered Clouds
5:35 PM 76.1 °F - 60.8 °F 59% 30.01 in 10.0 mi South 8.1 mph - N/A   Clear
5:55 PM 75.6 °F - 60.8 °F 60% 30.01 in 10.0 mi South 5.8 mph - N/A   Scattered Clouds
6:15 PM 74.8 °F - 60.4 °F 61% 30.00 in 10.0 mi SSE 4.6 mph - N/A   Scattered Clouds
6:35 PM 73.9 °F - 60.3 °F 62% 30.00 in 10.0 mi South 4.6 mph - N/A   Clear
6:55 PM 73.4 °F - 60.1 °F 63% 30.00 in 10.0 mi SSE 5.8 mph - N/A   Clear
8:35 PM 72.5 °F - 60.3 °F 65% 29.99 in 10.0 mi South 6.9 mph - N/A   Clear
8:55 PM 71.8 °F - 60.4 °F 67% 29.99 in 10.0 mi South 5.8 mph - N/A   Clear
9:15 PM 71.8 °F - 60.8 °F 68% 29.99 in 10.0 mi South 6.9 mph - N/A   Clear
9:55 PM 72.3 °F - 61.5 °F 69% 29.98 in 10.0 mi South 8.1 mph - N/A   Clear
10:15 PM 72.3 °F - 61.7 °F 69% 29.98 in 10.0 mi South 9.2 mph - N/A   Clear
10:35 PM 72.1 °F - 61.7 °F 70% 29.97 in 10.0 mi South 8.1 mph 16.1 mph N/A   Clear
10:55 PM 72.0 °F - 61.9 °F 70% 29.96 in 10.0 mi South 9.2 mph 16.1 mph N/A   Clear
11:35 PM 71.6 °F - 62.2 °F 72% 29.94 in 10.0 mi SSE 8.1 mph - N/A   Clear